Chatham Islands/Tuuta (NZCI)

Aerodrome — Elev 43
New Zealand
S043.48.36.000 W176.27.26.000
Loading chart...

Current Weather

NZCI 161600Z 35012KT 20KM BKN150 14/07 Q1011 RMK AUTO NZNR VATSIM USE ONLY

Published 1 days 1 hours 38 minutes ago

Airport Activity

Loading chart...
Loading chart...

Positions

CallsignRadio Name / Freq / Voice Room / TypeFrequencyVoice RoomType
NZZO_FSS Auckland Radio
128.900
nzzo_fss
128.900nzzo_fss
NSFA_CTR Faleolo Control
123.800
nsfa_ctr
123.800nsfa_ctr
UNICOM NZZO UNICOM
122.800
unicom_nzzo
122.800unicom_nzzo

Charts

Departure Charts

Departure